Terminal Aerodrome Forecast
Issued by NWS

Home | Current Version | Previous Version | Text Only | Print | Product List | Glossary On
Versions: 1 2 3 4 5 6 7 8 9 10 11
000
FTUS44 KJAN 132330
TAFGTR
TAF
KGTR 132330Z 1400/1424 20007KT P6SM SKC
     FM141100 31003KT P6SM SKC=

USA.gov is the U.S. government's official web portal to all federal, state and local government web resources and services.